Satellite-Ground Cal/Val Site Overpasses Predictions

Prediction of Satellite NPP Overpassing Cal/Val Site: Antarctic Dome C

Ground Cal/Val Site Location: Latitude: -75.10, Longitude: 123.35; Satellite-Ground Site NADIR distance within 100 km.

Table of predicted overpasses for the next 14.0 days since TLE Epoch: 3/31/2012
Interval Starting Time Ending Time Minimum Distance Time Minimum Distance (km)
1 03/31/2012 14:47:54 03/31/2012 14:48:23 03/31/2012 14:48:09 14.93
2 04/02/2012 07:30:43 04/02/2012 07:31:12 04/02/2012 07:30:58 4.98
3 04/05/2012 14:54:09 04/05/2012 14:54:38 04/05/2012 14:54:23 21.79
4 04/06/2012 14:35:26 04/06/2012 14:35:41 04/06/2012 14:35:33 85.53
5 04/07/2012 07:36:58 04/07/2012 07:37:25 04/07/2012 07:37:12 40.02
6 04/08/2012 07:18:12 04/08/2012 07:18:32 04/08/2012 07:18:22 69.90
7 04/10/2012 15:00:25 04/10/2012 15:00:49 04/10/2012 15:00:37 58.66
8 04/11/2012 14:41:34 04/11/2012 14:41:59 04/11/2012 14:41:46 50.70
9 04/12/2012 07:43:15 04/12/2012 07:43:34 04/12/2012 07:43:25 75.09
